Starlink 30823

operational
NORAD ID: 58248 Int'l Des: 2023-171 Owner: SPXS Country: US Constellation: starlink
LEOCIRCULAR

Starlink 30823について

説明を読み込み中...

リアルタイム位置

3D地球を読み込み中...

次回通過

高度履歴

Altitude vs Time

uPlot chart will show altitude changes over time

軌道要素

1 58248U 23171U 25258.16000815 .00000416 00000-0 45868-4 0 9990
2 58248 43.0027 159.5685 0001174 267.8776 92.1932 15.02534584103322
Epoch: Sep 15, 2025 • Age: 24 hours

現在のステータス

高度 559.5 km
速度 7.59 km/s
衛星直下点 25.32°N, 129.9°E
打ち上げ日 Nov 8, 2023
運用期間 1.8 years
タイプ internet

技術仕様

分類 Payload
質量 730.00 kg
乾燥質量 700.00 kg
総質量 730.00 kg
長さ 0.30 m
直径 4.10 m
スパン 29.00 m
形状 Box + pan
製造者 SPXS
バスタイプ Starlink V2M
フェーズステータス In Orbit
所有者/国 SPXS/US

大規模コンステレーション

Loading constellations...